Location: Centerville
(32.8776°N, 96.6203°W)
Time: 00:32:06
(UTC+00:00)

Cosmos 1937 Rocket - Pass Details

Date: 17 June 2021
Orbit: 746 x 780 km, 74.0° (Epoch: 01 August)

Event Time Altitude Azimuth Distance (km) Brightness Sun altitude
Rises 09:05:59 0° 332° (NNW) 3,268 7.1 -22.2°
Reaches altitude 10° 09:08:32 10° 324° (NW) 2,336 6.2 -21.9°
Enters shadow 09:13:07 36° 265° (W) 1,225 4.2 -21.3°
